Torna al catalogo

SL-14 DEB

AttivoPO
NORAD 45348·DEBRIS·🇷🇺 Russia

Lanciato Aug 15, 1991 da Plesetsk Cosmodrome

Loading…

Prossimi Passaggi (prossime 24 ore)

TLE

AggiornatoSource: Space-Track

Epoca: Sep 13, 2026, 06:00 UTC

1 45348U 91056CH  26256.25041148  .00000055  00000-0  10765-3 0  9993
2 45348  82.5625  73.1701 0020507 225.2357 134.7099 13.19278439314562

Traccia SL-14 DEB in tempo reale con AllMySat

Download on the App Store